GEFSGL_500_meanwind_294.txt.gz
Wind_Speed
7 8 8 8 9 9 9 10 10 11 12 13 13 14 14 14 14 14 14 14 14 14 14 14 14 15 15 15 16 16 17 17 17 17 18 18 17 17 17 17 17 17 18
9 10 10 10 11 11 11 11 11 12 13 14 15 15 15 15 15 14 15 15 15 15 15 15 16 16 16 16 17 18 18 18 18 19 19 19 18 18 17 18 18 19 19
11 11 11 12 13 13 12 12 12 13 14 14 15 15 15 16 16 15 16 16 16 16 16 17 17 17 18 18 19 19 20 20 20 20 20 20 20 19 19 19 19 20 21
12 13 13 13 14 14 14 14 14 14 15 15 16 16 16 16 16 17 17 17 17 17 18 18 18 19 20 20 20 21 21 21 21 21 20 21 20 20 20 20 20 21 22
14 14 15 15 15 16 15 15 15 15 16 16 16 17 17 17 17 18 18 18 18 19 19 19 20 20 21 21 22 22 22 22 22 22 21 21 21 21 21 21 22 22 23
16 16 16 16 17 17 16 17 17 17 17 17 17 17 18 18 18 19 19 20 19 20 20 21 21 22 22 22 23 22 23 23 23 23 23 22 22 22 22 23 22 23 23
17 18 18 18 18 17 17 18 18 18 18 19 18 18 19 19 20 20 21 20 21 21 22 22 23 23 23 23 23 23 23 23 24 24 24 23 23 23 23 23 23 23 23
18 19 20 19 18 18 19 19 19 20 20 20 19 20 20 21 21 22 22 22 23 23 24 24 24 25 24 24 24 24 24 24 25 25 25 25 24 24 24 24 24 24 25
20 20 20 20 20 20 20 20 21 22 21 21 21 22 22 23 23 24 24 24 25 24 25 25 25 25 25 25 25 25 25 25 25 26 26 26 25 25 25 25 26 26 26
21 21 22 21 21 21 21 22 23 23 23 22 23 24 24 24 24 25 25 26 26 25 26 25 25 25 26 26 26 26 26 26 26 26 26 26 26 26 27 27 26 26 26
23 23 23 23 23 23 23 23 24 25 24 24 25 25 25 25 25 25 26 26 25 25 26 26 26 26 27 27 27 26 26 27 27 26 26 26 25 25 26 26 27 27 27
25 25 25 25 25 24 24 25 25 26 26 26 26 26 26 26 26 26 27 26 26 26 26 26 26 26 27 27 27 27 27 27 27 26 25 25 25 25 26 26 27 27 28
27 26 27 26 26 26 26 26 27 27 27 27 28 28 27 27 27 27 27 27 26 26 26 26 27 27 27 27 27 27 27 27 27 26 25 25 26 26 26 26 27 27 27
28 28 28 27 27 27 28 29 29 28 29 29 29 29 29 28 28 28 28 27 28 27 27 27 28 28 28 28 27 27 27 27 26 26 25 26 26 27 26 26 27 27 27
29 29 28 29 28 29 29 30 30 30 30 30 29 29 29 28 28 28 28 28 28 28 28 27 28 28 28 28 28 27 27 26 26 25 25 26 26 26 27 27 27 27 26
29 29 29 29 29 30 30 31 31 31 31 30 30 29 28 27 27 28 28 28 28 28 28 28 28 27 28 28 28 27 26 26 25 25 25 25 26 26 27 27 27 27 28
31 30 30 30 30 31 32 31 31 31 31 30 29 28 27 27 27 28 28 28 28 28 28 28 27 26 26 27 27 26 26 26 25 25 24 24 25 26 27 27 27 27 27
32 32 32 31 32 32 32 32 31 31 31 31 30 29 28 28 28 28 28 27 27 27 27 27 27 26 26 27 27 27 26 25 25 25 25 25 25 26 27 28 28 27 27
33 33 33 34 33 33 33 33 32 31 30 30 29 28 27 27 27 27 27 27 27 26 26 26 27 27 26 26 27 27 26 25 25 24 24 25 25 26 26 27 27 27 26
33 34 34 34 34 33 33 33 32 31 30 29 28 27 27 27 26 26 26 26 26 26 26 27 27 26 26 26 27 27 26 24 24 24 24 24 25 25 26 26 26 25 26
33 34 34 33 33 33 33 33 31 31 30 28 28 27 27 27 26 26 26 26 27 27 27 26 26 26 26 26 26 26 25 25 24 24 24 25 25 25 25 25 25 25 25
33 33 32 32 32 32 32 32 30 29 28 28 27 28 27 26 26 25 25 26 26 26 26 26 25 25 25 25 26 26 26 25 25 24 24 24 24 24 24 24 24 24 23
32 32 31 30 30 30 30 29 29 27 27 27 27 27 26 26 25 25 26 26 26 26 26 25 25 25 26 25 25 25 24 24 24 24 24 24 24 24 23 24 24 23 23
31 30 29 28 28 28 28 28 28 27 26 26 26 26 26 26 26 26 26 26 26 26 25 25 25 25 26 25 25 23 23 23 24 24 23 23 23 23 23 23 23 23 23
30 29 28 27 27 27 27 28 28 27 26 25 25 25 25 25 26 26 26 26 25 25 25 25 25 25 26 25 24 23 23 23 23 22 22 23 23 23 23 23 23 23 24
29 28 27 26 27 27 27 26 26 26 26 26 25 25 24 24 25 25 25 25 25 25 26 25 25 25 25 24 24 24 24 24 23 23 23 23 23 23 23 23 23 24 24

GEFSGL_500_meanwind_300.txt.gz
Wind_Speed
7 7 7 8 9 9 10 11 11 11 12 13 13 14 15 15 15 16 16 17 17 17 17 17 17 17 17 18 18 19 19 19 19 19 20 21 21 22 22 22 21 21 21
9 9 9 10 10 11 12 12 13 12 13 14 15 16 16 16 17 17 18 19 18 18 18 18 19 19 19 20 20 20 20 20 20 20 20 21 21 22 22 22 21 21 22
11 11 11 12 12 13 13 14 14 15 15 17 17 17 17 17 18 19 19 20 20 20 20 20 20 20 21 21 21 21 21 22 22 21 21 21 21 22 22 23 23 22 22
12 13 13 14 14 15 15 16 17 17 17 18 18 18 18 18 19 20 20 21 21 21 21 21 22 22 22 22 22 23 23 23 23 23 22 22 22 22 22 22 23 23 23
14 15 16 16 16 16 17 18 18 18 19 19 19 19 19 19 20 21 21 21 21 22 22 23 23 23 23 23 24 24 24 23 23 23 23 23 22 22 22 22 22 22 23
16 16 17 17 18 18 18 19 19 20 20 20 19 20 20 21 22 22 23 22 22 23 23 24 24 24 24 24 24 23 24 24 23 23 23 23 22 23 22 22 23 23 24
18 18 18 19 19 19 20 20 21 21 21 21 22 22 23 23 23 23 24 24 24 24 24 25 25 26 25 25 24 24 24 24 24 24 24 24 24 23 23 23 24 25 24
19 20 20 20 21 21 22 22 23 23 23 23 23 23 24 24 25 25 25 25 25 25 25 26 26 26 26 25 25 24 24 24 24 24 24 24 24 24 24 24 25 25 23
21 22 23 22 22 22 23 23 24 24 24 24 25 25 26 25 26 26 26 26 26 26 26 26 26 26 26 26 26 26 26 25 25 24 25 24 24 25 25 25 25 24 24
23 23 24 25 24 24 24 25 25 26 26 26 26 26 26 27 27 27 26 26 26 26 26 26 27 27 27 27 26 27 27 26 26 25 25 25 25 25 25 25 25 25 24
24 25 25 26 26 26 26 25 25 26 26 27 27 27 28 28 28 27 27 28 27 27 26 26 27 27 27 27 27 27 27 27 26 26 26 25 25 25 25 26 25 25 26
27 27 27 27 28 29 28 27 27 27 28 28 29 29 30 30 29 28 29 28 27 27 27 26 26 27 27 27 27 27 28 27 27 27 27 26 26 26 26 26 26 26 27
28 28 29 29 30 29 29 29 29 29 30 30 31 31 31 30 30 29 29 28 27 27 27 27 27 27 27 27 27 27 27 27 27 27 27 27 26 26 26 27 27 27 28
30 30 31 31 31 31 32 32 32 32 32 31 32 32 31 31 30 30 30 28 28 28 27 27 27 27 27 28 27 27 27 27 27 27 27 27 27 27 27 27 28 28 28
31 32 32 33 33 33 33 33 34 34 34 34 33 33 33 32 31 30 29 28 28 28 28 27 27 28 28 28 27 27 27 28 28 28 27 27 27 27 27 27 27 27 27
32 32 32 33 34 35 34 35 35 35 35 34 34 33 32 32 31 30 29 29 28 28 28 27 28 28 27 27 27 27 27 27 28 28 27 27 27 27 27 27 27 26 26
32 33 33 33 34 35 36 36 35 35 35 34 33 32 31 31 31 30 29 28 28 28 28 27 27 27 27 27 27 27 27 27 28 28 27 27 28 28 28 27 26 26 26
33 33 34 34 35 35 35 35 35 34 34 33 33 32 31 30 30 30 29 28 27 26 26 26 26 26 26 26 27 27 27 27 27 28 27 27 28 28 27 27 26 26 26
33 34 34 35 35 35 35 35 34 34 34 32 31 30 30 30 30 29 28 27 26 26 26 26 26 26 26 26 27 27 27 28 27 27 27 27 26 26 26 27 26 26 26
34 34 34 35 35 36 36 35 34 33 31 29 29 29 29 29 29 28 28 27 27 27 27 27 26 27 27 26 27 27 28 28 28 28 28 27 26 26 26 26 25 25 25
34 34 34 35 35 35 35 34 33 31 30 28 27 27 27 27 27 27 27 27 27 27 27 27 27 27 27 27 27 27 28 28 29 28 29 28 27 27 27 26 26 25 25
35 35 35 34 34 34 34 32 31 30 29 28 27 26 26 26 26 26 26 26 26 26 27 27 27 27 26 27 27 28 28 29 29 29 29 29 27 27 26 25 25 26 25
35 35 34 34 33 33 32 30 30 30 29 28 27 26 26 26 26 26 26 27 27 27 27 28 28 28 28 27 27 28 28 29 29 29 29 29 27 27 26 26 25 25 25
34 33 33 32 32 31 30 29 29 29 28 27 26 26 25 26 26 26 26 26 26 26 27 28 28 28 28 27 27 28 28 29 29 29 28 27 26 26 26 26 26 25 25
32 32 31 31 31 30 30 29 28 27 27 26 26 26 25 25 25 25 25 25 26 27 27 28 28 27 28 27 27 27 27 28 28 28 27 26 26 25 26 25 25 25 25
31 31 31 30 30 29 28 28 27 27 25 24 25 25 25 25 25 26 26 26 27 28 28 28 27 27 28 28 27 27 27 27 27 27 26 26 25 25 25 24 24 23 23

GEFSGL_500_meanwind_306.txt.gz
Wind_Speed
9 8 8 8 10 9 9 10 11 11 12 12 13 14 14 15 16 16 16 16 16 16 16 17 17 17 17 17 18 19 19 20 20 20 21 20 20 20 20 21 21 21 21
11 11 11 11 11 11 11 11 12 13 13 14 15 16 16 17 17 18 18 18 18 18 18 18 18 18 18 19 19 20 20 20 20 21 21 22 22 22 21 21 22 21 22
13 13 12 12 13 13 14 14 15 16 16 17 17 17 18 19 19 19 19 19 19 19 19 19 19 19 20 20 20 21 21 21 21 22 22 22 22 22 22 22 22 22 23
15 14 14 15 15 16 16 16 17 18 18 19 19 20 20 20 21 20 20 20 20 20 19 20 21 21 21 21 21 21 22 22 22 22 22 22 22 22 23 22 23 23 23
17 17 17 17 18 18 18 18 19 20 20 21 21 21 22 22 22 22 22 21 21 21 21 21 21 22 22 22 22 22 23 23 23 23 23 23 23 23 23 23 23 24 24
19 19 19 19 20 20 21 21 22 22 22 22 22 23 23 24 24 23 23 22 22 22 22 22 23 23 23 23 23 23 24 24 24 24 24 24 23 23 23 23 24 24 24
21 22 22 21 22 23 23 23 24 24 23 23 23 24 24 24 25 24 24 24 24 23 24 24 23 23 24 24 24 24 24 25 25 25 25 24 24 24 24 24 24 25 24
23 24 24 24 25 25 25 25 24 24 24 24 25 25 25 25 25 25 26 25 25 25 25 25 25 25 25 24 24 25 25 25 25 25 25 24 24 24 25 25 25 25 25
25 25 25 25 26 26 26 26 26 26 26 26 26 26 26 25 26 26 26 26 26 26 26 26 26 26 25 25 26 26 26 26 26 25 25 25 25 25 26 26 26 26 26
27 27 27 27 27 28 27 27 27 28 28 27 27 27 26 26 27 27 27 28 28 28 28 28 27 27 27 27 27 26 27 26 26 26 26 26 26 26 26 26 26 26 26
29 29 30 29 29 29 29 29 29 29 29 29 28 28 28 28 28 28 28 29 29 29 29 28 28 27 27 27 27 27 27 27 26 26 26 26 25 26 26 26 26 27 26
30 31 31 31 31 31 31 31 31 30 29 29 29 29 28 29 29 29 29 29 29 29 29 28 28 27 28 28 28 28 28 27 26 26 26 26 25 25 25 25 26 26 25
31 32 32 33 32 32 32 32 31 31 30 29 29 30 29 30 30 30 29 29 29 29 29 28 28 28 28 29 29 28 28 27 26 26 26 25 25 25 25 25 26 26 25
32 33 33 33 33 32 32 32 31 31 31 31 31 31 31 31 31 30 29 29 29 29 29 29 28 28 29 29 29 29 28 27 26 26 25 25 25 25 25 25 26 26 26
31 32 32 33 32 32 32 32 31 31 32 32 32 32 31 31 31 31 30 30 30 30 29 29 28 29 29 29 29 29 28 28 26 25 25 25 25 25 25 25 25 26 26
32 32 32 32 32 32 32 32 32 33 32 32 32 32 32 31 31 31 30 30 30 30 29 29 29 28 29 29 28 28 27 27 26 25 25 25 25 24 25 25 26 26 25
34 33 33 33 33 33 33 33 33 33 33 33 33 33 33 32 31 31 31 31 30 30 29 29 28 28 28 28 28 27 27 27 26 26 25 25 25 25 26 26 26 26 26
34 34 33 32 32 33 33 33 33 33 33 33 33 33 33 32 31 30 30 31 30 29 29 29 28 27 27 27 27 27 27 27 26 26 26 25 25 25 26 26 26 26 25
33 33 33 32 32 33 33 33 34 34 34 34 34 34 33 32 31 30 30 30 29 28 28 27 26 26 26 27 27 27 27 27 27 27 27 27 26 26 26 26 26 26 25
33 33 33 33 33 34 34 33 33 33 33 33 33 33 32 31 30 29 29 29 27 27 26 25 26 26 26 26 27 27 27 27 27 27 27 27 27 26 26 26 26 25 25
33 34 33 34 34 34 34 33 33 32 32 32 31 31 30 29 29 28 28 28 26 25 25 26 26 26 26 27 27 28 28 27 27 27 27 27 27 26 26 26 26 26 26
34 34 34 34 34 33 33 32 32 32 31 31 31 30 30 29 28 27 27 26 26 25 26 26 26 26 26 27 28 28 28 27 27 27 27 26 26 26 26 26 26 26 26
34 34 34 34 33 32 32 32 31 31 31 30 30 29 28 27 27 27 25 25 25 25 25 26 26 27 27 27 27 27 27 27 27 26 26 26 26 26 26 26 26 26 25
33 33 32 32 31 30 31 31 30 30 29 28 27 26 26 26 26 26 25 25 25 25 26 27 27 27 27 28 28 27 27 27 27 26 26 26 26 26 26 26 25 25 25
30 31 31 30 29 29 29 28 28 27 27 26 26 26 26 26 25 25 26 26 26 26 27 27 27 27 28 28 28 27 27 26 27 27 27 26 26 26 26 25 25 25 25
29 29 28 28 27 27 26 26 26 26 26 26 26 26 26 25 25 25 25 26 27 26 26 26 26 27 27 26 26 27 27 26 26 26 26 26 26 25 25 26 26 25 25

GEFSGL_500_meanwind_312.txt.gz
Wind_Speed
13 13 13 13 13 12 13 14 14 14 14 14 14 15 16 16 16 16 16 16 17 17 17 17 17 17 17 18 19 19 20 20 20 21 21 21 21 21 21 22 21 21 21
15 15 14 14 14 14 15 15 16 16 16 16 16 17 17 18 17 17 17 17 18 18 18 18 18 19 19 19 20 20 21 21 21 21 21 22 22 21 21 22 22 22 22
18 18 16 16 16 17 17 17 17 17 18 18 19 19 19 19 19 19 18 18 18 19 19 20 20 20 20 20 21 21 21 22 22 22 21 22 22 22 22 21 21 21 22
20 20 19 19 19 19 19 19 19 19 20 20 21 21 21 20 20 21 20 20 20 20 20 21 21 22 22 22 22 22 23 23 23 23 22 22 23 23 23 22 22 23 23
21 21 21 21 21 21 21 21 22 22 23 23 23 23 23 22 22 22 22 22 21 21 22 22 22 22 23 23 23 24 24 24 24 24 23 23 23 24 24 24 24 24 24
21 22 22 22 22 22 22 22 23 24 25 25 25 24 23 23 23 23 23 23 23 23 23 23 23 23 24 23 24 24 24 24 23 23 23 23 24 24 24 24 24 24 25
22 23 23 23 24 24 23 24 25 25 25 25 25 25 25 25 25 25 24 24 24 24 24 24 24 24 24 24 24 24 24 24 24 24 23 24 24 24 24 24 25 25 25
24 24 25 25 24 25 25 26 26 27 27 27 26 26 26 26 26 26 26 26 26 25 25 25 25 25 25 25 25 25 25 25 25 25 25 25 25 25 25 25 25 25 25
26 26 26 26 27 27 27 27 28 28 28 28 28 28 28 27 27 27 28 27 27 26 26 27 27 27 27 27 27 26 26 26 26 26 26 26 26 26 26 25 25 26 25
27 28 28 28 28 29 29 29 29 30 30 30 30 30 29 28 28 28 29 29 28 28 27 28 28 29 29 29 28 28 27 27 27 27 26 26 26 26 26 26 26 26 26
29 29 29 29 30 30 31 31 31 31 31 31 31 30 29 28 28 28 29 29 29 29 29 29 29 29 29 29 29 28 28 27 27 27 27 27 27 27 27 27 27 27 27
30 30 31 32 32 32 32 33 33 33 33 32 32 31 29 29 29 29 29 29 30 30 30 30 30 29 29 29 28 28 28 28 27 28 28 27 27 27 27 27 27 28 27
32 32 32 32 33 34 34 34 34 34 34 34 32 31 30 29 29 29 30 30 30 30 30 30 29 29 28 28 28 28 28 28 27 27 26 26 26 26 27 27 27 27 27
33 33 33 33 33 34 35 35 35 36 35 35 33 32 32 30 29 30 31 31 31 31 31 30 29 28 28 28 28 27 27 27 26 26 26 26 26 26 26 27 27 26 26
35 34 34 34 34 35 35 35 36 35 34 33 32 33 31 31 31 31 31 31 32 32 31 30 29 29 29 28 28 28 27 27 27 27 27 27 27 27 27 27 27 27 27
33 33 33 34 34 35 35 35 35 35 34 35 35 33 33 33 32 32 32 32 32 32 30 29 29 29 29 29 28 28 28 28 28 28 28 27 27 27 27 27 27 27 26
33 33 33 32 33 34 34 34 34 34 35 35 35 35 35 34 33 33 33 33 33 32 31 30 30 30 30 29 29 29 29 28 28 28 28 27 26 27 27 27 27 26 26
31 31 31 31 32 33 34 34 35 35 34 35 36 35 34 33 33 33 33 33 32 31 31 30 30 30 30 30 29 29 29 28 28 28 28 27 27 27 27 27 27 27 27
32 32 32 32 33 34 35 35 36 36 35 36 35 34 34 33 32 32 32 32 31 31 31 31 30 30 29 30 29 29 29 28 28 28 27 26 27 27 28 28 27 27 28
32 32 33 34 34 34 34 34 35 35 35 35 34 33 33 32 31 31 31 31 31 31 31 30 30 30 30 29 28 28 28 27 28 28 28 27 28 28 28 28 28 28 27
32 32 33 34 34 35 35 35 35 35 34 33 33 33 32 31 31 30 30 30 30 30 30 30 30 30 29 28 27 26 27 27 27 27 27 27 28 28 27 27 27 27 27
33 34 34 33 34 34 35 34 34 33 32 32 32 30 29 29 29 29 29 29 29 29 29 29 30 29 28 27 27 27 27 27 27 27 27 28 28 28 27 27 26 26 26
33 33 33 33 34 34 33 32 31 31 30 30 29 29 28 28 28 28 28 28 28 28 29 28 27 26 26 25 25 26 27 27 27 27 28 28 28 28 27 26 25 25 25
32 32 32 32 32 31 30 30 29 28 28 27 27 27 27 26 26 26 26 26 26 26 26 26 26 25 25 25 26 27 28 28 28 27 27 27 28 27 27 26 25 25 25
31 31 31 30 30 29 28 27 26 26 26 26 26 26 26 26 26 26 25 25 25 25 24 24 25 25 26 26 26 27 27 28 28 27 27 27 27 27 26 26 25 25 25
30 30 29 29 28 27 27 27 26 25 26 26 26 26 26 25 25 25 25 25 25 26 26 26 26 25 25 26 26 26 26 27 27 27 27 26 26 26 26 26 25 25 25

GEFSGL_500_meanwind_318.txt.gz
Wind_Speed
10 10 10 10 11 11 12 12 12 13 13 13 12 12 13 13 14 15 15 15 15 15 15 15 15 15 15 16 16 16 17 17 17 17 18 19 20 20 20 20 20 20 19
12 12 12 12 12 12 12 13 14 14 14 14 15 15 15 15 16 16 16 16 16 16 16 16 16 16 17 17 18 18 19 19 19 20 20 20 21 22 21 21 21 21 21
14 14 14 14 14 14 14 15 15 16 16 17 17 17 17 17 17 17 18 17 17 17 17 17 18 18 18 19 20 20 20 21 21 21 22 22 22 22 22 22 22 22 21
17 16 17 16 16 16 17 17 17 18 18 18 18 19 19 19 19 19 20 19 19 19 19 19 19 19 20 20 20 21 22 22 23 23 23 23 23 23 22 22 22 22 22
19 19 19 19 19 19 19 19 19 20 20 20 20 20 21 21 21 22 22 22 21 21 21 21 21 22 22 22 22 22 23 23 24 24 24 24 24 24 23 22 22 22 23
20 20 20 21 22 21 21 21 21 21 21 22 22 22 22 23 24 24 24 24 23 23 23 23 23 24 24 24 24 24 24 25 25 25 24 24 24 24 23 23 23 23 23
21 22 22 22 23 23 23 23 23 23 22 23 24 24 25 25 25 26 26 25 25 25 25 25 25 24 25 25 25 25 25 25 26 26 25 24 24 24 24 24 24 24 24
24 24 24 25 25 24 24 25 25 25 25 25 25 26 26 26 26 27 27 28 27 26 26 26 25 25 26 26 26 26 26 27 27 26 26 25 24 24 24 24 24 25 25
26 26 26 26 26 26 26 26 26 26 27 27 26 26 27 27 28 29 29 29 29 28 27 27 26 26 26 27 27 27 26 26 26 26 25 24 24 25 25 25 25 25 26
27 27 27 28 27 27 27 27 27 28 27 28 28 28 28 29 29 29 30 30 30 29 28 28 28 27 27 28 27 26 25 25 25 25 25 25 24 24 25 25 25 25 26
28 28 28 28 28 28 28 28 29 29 29 30 30 30 30 30 30 30 30 31 31 30 29 28 28 28 28 28 27 27 26 25 25 25 25 25 25 25 25 25 26 26 26
29 29 29 29 29 30 30 30 31 31 31 31 31 30 31 31 31 31 30 31 30 30 30 29 29 29 29 28 28 27 26 25 25 25 25 25 25 25 25 25 26 26 26
30 30 29 29 30 31 31 31 32 32 33 32 31 31 30 30 31 31 31 31 31 31 30 30 30 30 30 29 27 27 26 26 26 26 26 25 26 26 26 27 27 27 27
31 31 31 30 30 31 31 31 31 32 32 32 32 31 30 30 30 31 31 31 31 31 30 30 30 30 29 28 27 26 26 26 26 26 26 26 26 26 27 27 28 28 28
32 31 31 31 31 31 31 32 32 32 32 32 31 31 31 31 31 31 31 31 31 30 30 30 30 29 29 28 27 26 27 27 27 27 27 27 27 27 27 28 28 28 27
32 32 32 32 31 31 31 31 31 31 32 32 33 33 33 33 33 34 34 34 33 32 31 30 29 28 28 27 27 27 27 27 27 27 27 28 28 28 28 28 28 28 27
32 32 32 32 32 31 31 30 30 30 31 32 33 34 35 35 34 34 34 33 32 31 30 29 29 28 27 27 27 27 27 27 27 28 28 28 28 28 28 28 27 28 27
32 33 33 32 32 31 31 30 30 30 31 32 32 32 33 33 33 33 32 31 30 29 28 28 27 26 26 27 27 27 27 27 28 28 28 28 28 27 27 26 26 26 26
33 33 33 33 32 31 30 30 31 31 31 31 31 31 31 31 32 31 30 29 28 27 26 25 25 25 25 26 26 26 26 27 27 27 27 27 27 27 26 26 26 25 25
33 32 32 32 31 31 31 31 31 30 30 30 30 30 29 29 29 29 28 28 27 25 25 25 25 25 25 25 25 26 26 26 26 26 25 25 25 26 26 26 26 25 25
32 32 32 31 31 31 31 31 31 30 29 29 29 29 28 28 28 27 27 27 26 25 25 26 26 26 26 26 25 25 25 25 24 24 24 24 25 25 25 26 26 26 26
31 31 31 31 31 31 31 30 30 30 29 29 28 27 27 27 27 26 26 26 26 26 26 26 26 26 26 26 25 24 24 24 24 25 25 25 25 26 26 26 26 25 25
30 30 31 31 31 31 31 31 30 30 30 29 29 27 27 27 26 26 26 26 26 26 26 26 26 25 25 24 24 23 23 24 25 26 26 26 26 26 26 26 26 25 25
29 29 30 30 30 30 30 30 30 30 29 28 28 28 27 27 27 27 26 26 26 25 24 25 25 24 24 24 24 24 24 25 26 27 26 27 27 27 26 26 26 25 25
29 29 29 29 29 29 29 29 29 28 28 28 28 28 27 27 27 26 26 26 26 26 26 26 25 25 25 25 26 26 26 26 26 27 27 27 27 27 26 26 26 26 25
30 29 29 28 28 28 28 28 28 27 27 27 28 28 27 27 26 26 26 26 25 25 26 26 27 27 27 27 27 27 26 26 27 27 27 27 27 27 26 26 27 27 26

GEFSGL_500_meanwind_324.txt.gz
Wind_Speed
13 12 12 13 14 14 15 14 14 14 14 15 15 15 15 16 16 17 17 18 18 19 18 18 18 19 19 19 19 19 20 20 19 20 21 21 21 22 22 23 23 24 24
14 14 14 14 14 15 16 16 16 16 16 17 17 17 18 18 18 19 19 19 20 20 20 20 20 20 20 21 21 21 22 21 21 22 23 23 24 24 25 25 25 25 25
15 16 16 16 16 17 18 18 18 17 18 19 19 19 20 20 20 20 20 21 21 22 22 22 22 22 22 22 22 23 23 23 24 24 24 25 25 26 26 26 26 26 26
17 18 18 19 19 19 19 20 20 21 21 21 21 21 22 22 22 22 22 23 24 24 24 23 23 24 24 24 24 25 25 25 25 26 26 26 26 26 27 26 26 26 26
20 20 21 22 22 22 22 22 23 23 23 23 23 24 24 24 24 24 25 25 25 26 25 25 25 26 26 26 26 26 27 27 27 27 27 27 27 26 26 26 26 26 27
22 23 24 25 24 25 24 24 24 25 25 26 26 26 26 26 26 26 26 27 27 27 26 27 27 28 28 27 27 27 28 28 28 28 28 28 27 28 27 27 27 26 26
25 25 26 26 26 26 26 26 26 26 27 27 28 28 28 28 28 28 29 29 29 29 29 29 28 29 29 29 29 28 28 28 29 29 29 29 29 29 28 28 28 27 27
26 27 27 27 27 27 27 27 27 28 28 29 29 29 30 30 31 30 29 29 29 30 30 30 29 29 29 29 29 28 28 29 30 30 30 29 28 28 28 28 28 28 28
27 27 28 28 28 28 28 29 29 29 29 30 31 31 30 30 31 31 30 30 30 30 31 31 31 30 29 29 29 29 29 29 30 30 30 29 29 29 28 28 28 28 28
28 28 29 29 29 29 29 29 29 29 30 30 31 31 31 31 31 31 31 31 30 30 30 30 31 31 31 30 30 30 30 30 30 30 31 30 30 29 29 29 29 29 29
28 29 29 29 30 30 30 30 30 30 29 30 30 31 31 32 31 32 31 31 31 30 30 30 30 31 31 31 31 31 31 31 31 31 30 30 30 30 30 30 30 30 29
30 30 30 30 31 31 30 30 31 31 30 30 30 31 31 32 32 31 31 31 31 31 31 31 31 31 31 31 31 31 30 30 30 30 30 30 30 30 30 31 30 30 29
30 31 31 31 31 31 31 32 31 31 31 31 31 31 31 32 32 31 31 31 31 31 31 31 32 32 31 31 31 30 30 30 30 30 30 30 29 29 29 29 29 29 29
31 31 32 32 31 31 32 32 31 32 31 31 31 31 31 31 31 31 32 32 32 32 31 31 31 31 31 30 30 29 30 29 29 28 28 28 28 28 29 29 28 28 28
32 32 32 31 31 31 30 31 32 32 32 31 31 31 31 30 30 31 31 31 31 32 31 31 31 30 30 29 28 28 28 27 28 28 27 26 27 27 28 28 28 28 28
33 33 32 31 31 31 30 30 30 30 31 31 31 31 31 31 31 30 30 30 30 30 30 29 29 28 28 27 28 28 28 27 27 27 26 26 26 26 26 26 27 27 27
33 32 32 31 30 30 30 30 30 29 30 31 31 31 31 30 30 30 30 30 29 29 29 28 28 27 27 27 27 27 28 28 27 27 27 26 25 25 25 25 26 26 26
31 31 32 31 31 30 30 30 30 29 30 30 30 30 30 30 30 30 29 29 29 28 28 28 28 28 27 27 27 27 28 27 27 26 26 25 25 24 24 24 24 25 25
30 31 32 31 31 31 30 30 30 30 29 29 29 29 30 30 29 29 29 28 28 28 28 28 28 28 28 28 28 28 28 28 27 26 25 25 25 24 24 24 24 24 24
31 31 32 31 31 31 30 30 31 30 30 30 30 30 30 30 30 29 29 28 28 27 27 27 27 28 28 28 28 27 27 26 26 25 25 25 24 24 24 24 24 24 24
31 31 31 31 30 30 30 31 31 31 31 31 30 30 30 30 29 29 29 29 28 27 27 26 27 27 27 28 28 26 26 26 26 25 25 24 24 24 24 24 24 24 24
31 31 30 30 30 30 31 31 31 31 31 31 31 31 30 29 28 28 28 28 27 27 26 26 26 26 26 27 27 26 26 25 25 25 24 24 24 25 25 25 25 25 25
31 32 32 31 30 31 31 32 31 31 31 31 32 31 30 29 29 28 28 27 27 26 26 26 25 25 25 26 26 26 25 25 25 25 25 26 26 26 26 26 25 25 26
31 31 31 30 30 31 31 31 32 31 31 30 30 30 30 29 28 28 27 26 26 27 27 26 25 25 25 25 25 25 25 25 25 25 26 27 27 27 27 27 26 26 26
30 30 31 31 31 32 32 32 31 31 30 30 30 29 28 27 26 26 25 25 25 26 26 26 26 25 25 25 25 25 25 25 26 26 26 26 27 27 27 27 26 26 26
30 30 30 30 30 30 30 30 29 29 28 28 27 27 26 26 26 26 26 25 25 26 26 25 25 25 26 26 26 25 25 26 27 27 27 27 27 27 27 27 27 27 27